Cruise inventory

RV Corystes COR5A/93

Cruise summary report

Cruise Info. 
Ship name (ship code)RV Corystes (74RY)
Cruise identifierCOR5A/93
Cruise period1993-05-04 — 1993-05-10
StatusCompleted
Port of departureLowestoft, United Kingdom
Port of returnLowestoft, United Kingdom
Objectives1. To identify and quantify the fate of river-borne nutrients entering the Wash and Humber estuary, examining nutrient distributions and critical processes from the river inputs through to the North Sea in subtidal sediments and overlying waters.
2. To measure factors affecting benthic nutrient recycling in subtidal sediments along transect across the North Sea.
Chief scientistJuan Brown (Ministry of Agriculture, Fisheries and Food Lowestoft Fisheries Laboratory)
ProjectJONUS
Coordinating bodyMAFF
Cruise reportRV Corystes COR5A/93 cruise report co5a_93.pdf — access key 'C' (0.08 MB) 
Ocean/sea areas 
GeneralNorth Sea
SpecificWestern North Sea, Wash, Humber
Track chartsRV Corystes COR5A/93 cruise track — trk3850.html
Measurements 
Physical oceanography 
Surface measurements underway (T,S)Quantity: number of samples = 76
CTD stationsQuantity: number of stations = 59
Description: also 74 surface only
Other physical oceanographic measurementsQuantity: number of deployments = 1
Description: Current meter used for profiling from anchored ship
Chemical oceanography 
PhosphateQuantity: number of stations = 132
Description: 74 surface only
NitrateQuantity: number of stations = 132
Description: 74 surface only
NitriteQuantity: number of stations = 133
Description: 74 surface only
AmmoniaQuantity: number of stations = 132
Description: 74 surface only
SilicateQuantity: number of stations = 132
Description: 74 surface only
Contamination 
Suspended matterQuantity: number of samples = 132
Data held at BODC 
Series/Profiles 
59  CTD/STD cast
Vertical spatial coordinates
Salinity of the water column
Temperature of the water column
Vertical spatial coordinates
Salinity of the water column
Temperature of the water column

BODC idDate/TimeLocationDoc.
5465131993-05-05 08:12 53° 42' 2" N  0° 11' 20" E  View metadata report for BODC series reference number 546513
5465251993-05-05 09:26 53° 39' 19" N  0° 27' 4" E  View metadata report for BODC series reference number 546525
5465371993-05-05 10:09 53° 36' 54" N  0° 22' 46" E  View metadata report for BODC series reference number 546537
5465491993-05-05 11:32 53° 31' 54" N  0° 13' 31" E  View metadata report for BODC series reference number 546549
5465501993-05-05 12:17 53° 30' 17" N  0° 17' 39" E  View metadata report for BODC series reference number 546550
5465621993-05-05 13:10 53° 33' 54" N  0° 23' 55" E  View metadata report for BODC series reference number 546562
5465741993-05-05 13:50 53° 32' 54" N  0° 30' 24" E  View metadata report for BODC series reference number 546574
5465861993-05-05 14:30 53° 26' 37" N  0° 26' 23" E  View metadata report for BODC series reference number 546586
5465981993-05-05 15:18 53° 20' 38" N  0° 22' 16" E  View metadata report for BODC series reference number 546598
5466051993-05-05 16:25 53° 18' 7" N  0° 24' 4" E  View metadata report for BODC series reference number 546605
5466171993-05-05 17:43 53° 21' 14" N  0° 37' 45" E  View metadata report for BODC series reference number 546617
5466291993-05-05 18:35 53° 14' 29" N  0° 40' 10" E  View metadata report for BODC series reference number 546629
5466301993-05-05 19:16 53° 10' 51" N  0° 36' 58" E  View metadata report for BODC series reference number 546630
5466421993-05-05 19:52 53° 8' 33" N  0° 35' 1" E  View metadata report for BODC series reference number 546642
5466541993-05-05 20:24 53° 10' 31" N  0° 33' 56" E  View metadata report for BODC series reference number 546654
5466661993-05-05 21:15 53° 10' 14" N  0° 29' 41" E  View metadata report for BODC series reference number 546666
5466781993-05-05 22:26 53° 4' 56" N  0° 30' 4" E  View metadata report for BODC series reference number 546678
5466911993-05-06 07:59 52° 56' 14" N  0° 15' 29" E  View metadata report for BODC series reference number 546691
5467091993-05-06 08:32 52° 55' 13" N  0° 15' 49" E  View metadata report for BODC series reference number 546709
5467101993-05-06 09:40 52° 57' 55" N  0° 16' 52" E  View metadata report for BODC series reference number 546710
5467221993-05-06 10:11 52° 56' 36" N  0° 18' 36" E  View metadata report for BODC series reference number 546722
5467341993-05-06 11:00 52° 55' 59" N  0° 21' 1" E  View metadata report for BODC series reference number 546734
5467461993-05-06 11:33 52° 56' 21" N  0° 23' 17" E  View metadata report for BODC series reference number 546746
5467581993-05-06 11:56 52° 56' 57" N  0° 21' 37" E  View metadata report for BODC series reference number 546758
5467711993-05-06 12:33 52° 58' 28" N  0° 18' 29" E  View metadata report for BODC series reference number 546771
5467831993-05-06 13:11 52° 59' 50" N  0° 21' 19" E  View metadata report for BODC series reference number 546783
5467951993-05-06 14:00 52° 58' 54" N  0° 23' 3" E  View metadata report for BODC series reference number 546795
5468021993-05-06 14:32 52° 57' 46" N  0° 25' 0" E  View metadata report for BODC series reference number 546802
5468141993-05-06 15:13 52° 59' 13" N  0° 26' 49" E  View metadata report for BODC series reference number 546814
5468261993-05-06 15:52 53° 0' 13" N  0° 25' 4" E  View metadata report for BODC series reference number 546826
5468381993-05-06 16:47 53° 1' 37" N  0° 23' 51" E  View metadata report for BODC series reference number 546838
5468511993-05-06 17:23 53° 3' 22" N  0° 24' 17" E  View metadata report for BODC series reference number 546851
5468631993-05-06 17:53 53° 2' 26" N  0° 25' 50" E  View metadata report for BODC series reference number 546863
5468751993-05-06 18:26 53° 1' 33" N  0° 26' 58" E  View metadata report for BODC series reference number 546875
5468871993-05-06 18:56 53° 0' 52" N  0° 28' 10" E  View metadata report for BODC series reference number 546887
5468991993-05-06 19:32 53° 2' 46" N  0° 27' 54" E  View metadata report for BODC series reference number 546899
5469061993-05-06 20:11 53° 4' 45" N  0° 25' 50" E  View metadata report for BODC series reference number 546906
5469181993-05-07 05:21 53° 4' 32" N  0° 59' 55" E  View metadata report for BODC series reference number 546918
5469311993-05-07 07:14 53° 0' 0" N  1° 20' 58" E  View metadata report for BODC series reference number 546931
5469431993-05-07 08:40 52° 50' 29" N  1° 40' 9" E  View metadata report for BODC series reference number 546943
5469551993-05-07 09:35 52° 43' 56" N  1° 49' 2" E  View metadata report for BODC series reference number 546955
5469671993-05-07 12:25 52° 50' 3" N  2° 21' 0" E  View metadata report for BODC series reference number 546967
5469791993-05-07 16:37 53° 0' 13" N  3° 7' 37" E  View metadata report for BODC series reference number 546979
5469801993-05-07 19:50 52° 59' 57" N  3° 47' 48" E  View metadata report for BODC series reference number 546980
5469921993-05-08 00:01 52° 59' 39" N  4° 28' 16" E  View metadata report for BODC series reference number 546992
5470061993-05-08 02:00 52° 40' 0" N  4° 25' 55" E  View metadata report for BODC series reference number 547006
5470181993-05-08 04:25 52° 21' 4" N  4° 15' 58" E  View metadata report for BODC series reference number 547018
5470311993-05-08 06:39 52° 4' 12" N  4° 0' 5" E  View metadata report for BODC series reference number 547031
5470431993-05-08 08:16 51° 56' 2" N  3° 44' 55" E  View metadata report for BODC series reference number 547043
5470551993-05-08 10:08 51° 42' 34" N  3° 19' 17" E  View metadata report for BODC series reference number 547055
5470671993-05-09 03:57 51° 38' 16" N  3° 4' 57" E  View metadata report for BODC series reference number 547067
5470791993-05-09 05:24 51° 36' 16" N  2° 48' 52" E  View metadata report for BODC series reference number 547079
5470801993-05-09 09:31 51° 30' 56" N  1° 54' 1" E  View metadata report for BODC series reference number 547080
5470921993-05-09 11:40 51° 30' 49" N  1° 21' 0" E  View metadata report for BODC series reference number 547092
5471111993-05-09 12:58 51° 30' 52" N  1° 7' 20" E  View metadata report for BODC series reference number 547111
5471231993-05-09 13:58 51° 34' 18" N  1° 14' 25" E  View metadata report for BODC series reference number 547123
5471351993-05-09 15:32 51° 47' 3" N  1° 35' 8" E  View metadata report for BODC series reference number 547135
5471471993-05-09 18:02 52° 0' 11" N  2° 19' 48" E  View metadata report for BODC series reference number 547147
5471591993-05-09 20:14 52° 21' 51" N  2° 0' 4" E  View metadata report for BODC series reference number 547159